FW3942 Weather Reports


time (UTC)temp
F
wind
direction
speed
knots
gust
knots
rain 1hr
in
rain 24hr
in
rain mn
in
humidity
%
barometer
mb
20260508181610 41 306 4.3 7.0 0.00 0.69 0.00 95 1002.1
20260508180053 41 342 4.3 7.0 0.00 0.69 0.00 96 1002.1
20260508174551 40 2 2.6 4.3 0.00 0.92 0.00 95 1002.2
20260508173053 40 342 2.6 4.3 0.00 0.92 0.00 95 1002.4
20260508171553 40 317 3.5 5.2 0.00 0.92 0.00 95 1002.5
20260508170050 39 309 2.6 6.1 0.00 0.92 0.00 95 1002.5
20260508164548 41 292 3.5 7.8 0.00 0.94 0.00 96 1002.5
20260508163049 41 336 5.2 8.7 0.00 0.94 0.00 96 1002.2
20260508161546 41 330 3.5 7.8 0.00 0.94 0.00 95 1001.9
20260508160045 41 6 4.3 7.8 0.00 0.94 0.00 95 1001.8
20260508154544 41 335 5.2 7.8 0.00 0.94 0.00 96 1002.1
20260508153042 41 357 4.3 7.8 0.00 0.94 0.00 96 1002.1
20260508151545 41 338 3.5 7.0 0.00 0.94 0.00 95 1002.2
20260508150046 41 352 5.2 8.7 0.00 0.94 0.00 96 1002.3
20260508144638 42 328 5.2 7.8 0.00 0.94 0.00 96 1002.3
20260508143044 41 347 4.3 7.0 0.00 0.94 0.00 96 1002.3
20260508141538 41 320 3.5 7.0 0.00 0.94 0.00 96 1002.3
20260508140042 41 347 1.7 5.2 0.00 0.94 0.00 96 1002.6
20260508134533 41 328 2.6 5.2 0.00 0.94 0.00 95 1002.7
20260508133037 42 330 3.5 7.8 0.00 0.94 0.00 96 1002.4
20260508131534 42 347 4.3 7.8 0.00 0.94 0.00 96 1002.2
20260508130030 42 347 4.3 7.0 0.00 0.94 0.00 96 1001.9
20260508124527 44 7 3.5 5.2 0.00 0.94 0.00 97 1001.8
20260508123025 42 28 3.5 5.2 0.00 0.94 0.00 97 1002.1
20260508121523 42 3 2.6 5.2 0.00 0.94 0.00 97 1002.4
20260508120021 42 347 3.5 5.2 0.00 0.94 0.00 97 1002.3
20260508114527 42 6 3.5 6.1 0.00 0.94 0.00 96 1002.3
20260508113012 44 337 4.3 7.0 0.00 0.94 0.00 97 1002.4
20260508111511 43 306 0.0 0.9 0.00 0.94 0.00 97 1002.3
20260508110005 44 239 0.0 0.9 0.00 0.94 0.00 98 1002.7
20260508104503 42 60 0.0 0.9 0.00 0.94 0.00 97 1002.6
20260508103001 41 60 0.0 0.0 0.00 0.94 0.00 97 1002.7
20260508101559 41 60 0.0 0.0 0.00 0.94 0.00 97 1002.7
20260508100057 40 60 0.0 1.7 0.00 0.94 0.00 97 1002.4
20260508094553 40 60 0.9 2.6 0.00 0.94 0.00 97 1002.2
20260508093055 39 328 0.0 1.7 0.00 0.94 0.00 97 1002.4
20260508091549 39 328 0.0 0.9 0.00 0.94 0.00 97 1002.3
20260508090050 39 328 0.0 0.0 0.00 0.94 0.00 97 1002.1
20260508084547 39 328 0.9 2.6 0.00 0.94 0.00 96 1001.9
20260508083043 40 328 0.0 3.5 0.00 0.94 0.00 96 1001.8
20260508081545 40 5 0.9 1.7 0.00 0.94 0.00 96 1001.4
20260508080040 41 5 0.9 2.6 0.00 0.94 0.00 96 1001.5
20260508074539 41 12 0.0 2.6 0.00 0.94 0.00 96 1001.5
20260508073036 41 332 0.0 1.7 0.00 0.94 0.00 96 1001.8
20260508071540 42 332 0.0 0.9 0.00 0.94 0.00 96 1001.7
20260508070038 42 332 0.0 3.5 0.00 0.94 0.00 96 1001.9
20260508064557 42 74 0.0 0.0 0.00 0.94 0.00 97 1001.8
20260508063036 42 74 0.0 0.0 0.00 0.94 0.00 96 1001.7
20260508061535 41 74 0.0 0.9 0.00 0.94 0.00 97 1001.9
20260508060037 41 74 0.0 3.5 0.00 0.94 0.00 96 1001.8
20260508054552 41 57 1.7 4.3 0.00 0.94 0.00 96 1002.1
20260508053158 41 32 2.6 5.2 0.00 0.94 0.00 96 1002.4
20260508051529 42 352 1.7 3.5 0.00 0.94 0.00 96 1002.3
20260508050034 43 31 3.5 7.0 0.00 0.94 0.00 96 1002.2
20260508044527 43 22 1.7 3.5 0.00 0.94 0.00 96 1002.0
20260508043031 42 49 2.6 5.2 0.00 0.94 0.00 96 1002.0
20260508041523 41 352 4.3 8.7 0.00 0.94 0.00 96 1002.5
20260508040019 42 357 2.6 7.8 0.00 0.94 0.00 94 1002.4
20260508034522 44 352 0.9 3.5 0.00 0.94 0.00 95 1002.4
20260508033013 45 313 4.3 7.0 0.00 0.94 0.00 95 1002.3
20260508031509 48 113 0.0 0.0 0.01 0.94 0.00 96 1002.1
20260508030006 48 113 0.0 2.6 0.01 0.94 0.94 96 1002.0
20260508024507 48 113 0.9 4.3 0.02 0.94 0.94 96 1002.1
20260508023004 48 105 4.3 7.0 0.03 0.94 0.94 96 1001.9
20260508021503 47 194 0.0 0.9 0.03 0.93 0.93 96 1002.4
20260508020002 47 194 0.0 3.5 0.06 0.93 0.93 96 1002.5
20260508014502 47 140 1.7 3.5 0.06 0.92 0.92 96 1002.6
20260508013001 47 232 1.7 2.6 0.07 0.91 0.91 96 1002.7
20260508011616 47 232 1.7 2.6 0.09 0.90 0.90 95 1002.6
20260508010104 46 232 0.9 3.5 0.08 0.87 0.87 95 1002.4
20260508004558 47 201 2.6 4.3 0.08 0.86 0.86 95 1002.6
20260508003058 46 191 1.7 5.2 0.07 0.83 0.83 95 1002.5
20260508001557 46 214 2.6 6.1 0.06 0.81 0.81 95 1002.6
20260508000116 46 197 3.5 6.1 0.04 0.80 0.80 94 1002.7
20260507234556 46 188 1.7 10.4 0.02 0.78 0.78 95 1002.4
20260507233054 45 229 6.1 14.8 0.01 0.76 0.76 94 1002.2
20260507231558 46 285 10.4 15.6 0.00 0.76 0.76 91 1001.7
20260507230049 54 268 13.0 19.1 0.00 0.76 0.76 84 1001.5
20260507224551 56 194 2.6 6.1 0.00 0.76 0.76 88 1000.8
20260507223046 56 166 6.1 7.8 0.00 0.76 0.76 88 1000.9
20260507221545 56 158 5.2 8.7 0.00 0.76 0.76 87 1000.9
20260507220045 56 174 5.2 10.4 0.00 0.76 0.76 87 1000.6
20260507214547 56 170 6.1 13.0 0.00 0.76 0.76 87 1000.6
20260507213044 57 170 7.8 13.9 0.00 0.76 0.76 86 1000.6
20260507211551 57 143 11.3 16.5 0.00 0.76 0.76 87 1000.5
20260507210047 56 149 7.8 12.2 0.02 0.76 0.76 88 1000.5
20260507204542 56 145 2.6 10.4 0.06 0.76 0.76 89 1000.5
20260507203042 56 175 8.7 19.1 0.10 0.76 0.76 89 1000.3
20260507201539 56 153 9.6 18.2 0.15 0.76 0.76 89 1000.1
20260507200040 55 128 12.2 19.1 0.19 0.74 0.74 91 999.8
20260507194537 55 137 12.2 19.1 0.21 0.70 0.70 91 1000.8
20260507193030 55 134 9.6 14.8 0.24 0.65 0.65 91 1001.9
20260507191529 55 167 7.0 12.2 0.28 0.61 0.61 91 1002.7
20260507190030 56 161 7.8 17.4 0.31 0.55 0.55 91 1002.5
20260507184525 56 166 11.3 19.1 0.34 0.49 0.49 92 1003.0
20260507183025 55 177 9.6 20.0 0.34 0.41 0.41 92 1002.9